(213348) = 2001 SC308

Discovered at Socorro on 2001-09-21 by LINEAR.

Orbit

Orbit type: Main Belt

Note: WebGL enabled browser required.

epoch2024-03-31.0
epoch JD2460400.5
perihelion date2023-11-13.37215
perihelion JD2460261.87215
argument of perihelion (°)119.30969
ascending node (°)172.57938
inclination (°)7.75882
eccentricity0.2135657
perihelion distance (AU)2.1606377
Tisserand w.r.t. Jupiter3.3
ΔV w.r.t. Earth (km/sec)9.6
semimajor axis (AU)2.7473850
mean anomaly (°)30.00372
mean daily motion (°/day)0.21643350
aphelion distance (AU)3.334
period (years)4.55
P-vector [x]0.37384173
P-vector [y]-0.89090235
P-vector [z]-0.25794451
Q-vector [x]0.92732861
Q-vector [y]0.36425819
Q-vector [z]0.08589310
absolute magnitude16.44
phase slope0.15
uncertainty0
referenceMPEC 2024-E123
observations used495
oppositions18
arc length (days)22938
first opposition used1960
last opposition used2023
residual rms (arc-secs)0.67
perturbers coarse indicatorM-v
perturbers precise indicator003Ek
first observation date used1960-09-26.0
last observation date used2023-07-16.0
computer nameMPCLINUX
JD of orbit computation2456966.744689
perihelion JD uncertainty (days)4.9134E-05
argument of perihelion uncertainty (°)3.0693E-05
ascending node uncertainty (°)2.7361E-05
inclination uncertainty (°)3.4723E-06
eccentricity uncertainty 3.1977E-08
perihelion distance uncertainty (AU)9.0854E-08
Minimum Orbit Intersection Distances (in AU)
for orbit epoch: 2460000.5, reference: E2023-O15
Mercury1.72224
Venus1.4453
Earth1.15664
Mars0.78041
Jupiter1.9262
Saturn5.78533
Uranus15.2878
Neptune26.8301

Observations

503 total observations over interval: 1960 09 26.35694 – 2023 07 16.335997
These data are available for download (format description).

Date (UT) J2000 RA J2000 Dec Magn Location Ref
1960 09 26.35694 00 42 57.32 +01 14 50.0 19.8   675 – Palomar Mountain MPS 284232
1960 09 26.37986 00 42 56.27 +01 14 39.5 19.7   675 – Palomar Mountain MPS 284232
1960 09 26.41250 00 42 54.65 +01 14 21.2 19.8   675 – Palomar Mountain MPS 284232
1960 09 26.42291 00 42 54.10 +01 14 15.8 20.1   675 – Palomar Mountain MPS 284232
1960 09 28.41742 00 41 20.89 +00 57 10.4 20.6   675 – Palomar Mountain MPS 284232
1960 09 28.43819 00 41 19.82 +00 56 59.6 20.0   675 – Palomar Mountain MPS 284232
1960 09 29.37153 00 40 36.21 +00 49 01.0 19.3 V 675 – Palomar Mountain MPS 284232
2001 09 19.31976 00 38 17.40 +01 21 15.2 19.3   704 – Lincoln Laboratory ETS, New Mexico MPS 54967
2001 09 19.33389 00 38 16.58 +01 21 04.7 19.6   704 – Lincoln Laboratory ETS, New Mexico MPS 54967
2001 09 19.34802 00 38 15.87 +01 20 57.2 20.3   704 – Lincoln Laboratory ETS, New Mexico MPS 54967
2001 09 21.32228 00 36 48.15 +01 03 46.6 19.7   704 – Lincoln Laboratory ETS, New Mexico MPS 44089
2001 09 21.34142 00 36 47.23 +01 03 37.0 19.6   704 – Lincoln Laboratory ETS, New Mexico MPS 44089
2001 09 21.36403 00 36 46.19 +01 03 25.5 19.2   704 – Lincoln Laboratory ETS, New Mexico MPS 44089
2001 09 21.37823 00 36 45.49 +01 03 17.5 19.9   704 – Lincoln Laboratory ETS, New Mexico MPS 44089
2001 09 21.39244 00 36 44.87 +01 03 10.0 19.4   704 – Lincoln Laboratory ETS, New Mexico MPS 44089
2001 09 23.32148 00 35 17.46 +00 46 17.9 19.0   704 – Lincoln Laboratory ETS, New Mexico MPS 44089
2001 09 23.34236 00 35 16.43 +00 46 06.6 18.7   704 – Lincoln Laboratory ETS, New Mexico MPS 44089
2001 09 23.35657 00 35 15.72 +00 45 59.2 19.3   704 – Lincoln Laboratory ETS, New Mexico MPS 44089
2001 09 23.37079 00 35 15.07 +00 45 51.7 19.1   704 – Lincoln Laboratory ETS, New Mexico MPS 44089
2001 09 23.38500 00 35 14.40 +00 45 44.1 18.6   704 – Lincoln Laboratory ETS, New Mexico MPS 44089
2001 09 26.34551 00 32 57.90 +00 19 51.8 20.0   704 – Lincoln Laboratory ETS, New Mexico MPS 49514
2001 09 26.36010 00 32 57.27 +00 19 45.2 20.5   704 – Lincoln Laboratory ETS, New Mexico MPS 49514
2001 09 26.37468 00 32 56.52 +00 19 37.3 20.1   704 – Lincoln Laboratory ETS, New Mexico MPS 49514
2001 10 24.18198 00 14 13.44 -03 02 08.0 20.2   704 – Lincoln Laboratory ETS, New Mexico MPS 54967
2001 10 24.21512 00 14 12.53 -03 02 18.5 19.7   704 – Lincoln Laboratory ETS, New Mexico MPS 54967
2001 10 24.23167 00 14 12.01 -03 02 23.3 19.8   704 – Lincoln Laboratory ETS, New Mexico MPS 54967
2004 02 29.24943 10 20 30.00 +06 50 39.2 22.2 V 691 – Steward Observatory, Kitt Peak-Spacewatch MPS 139255
2004 02 29.28555 10 20 28.22 +06 50 53.6 21.4 V 691 – Steward Observatory, Kitt Peak-Spacewatch MPS 139255
2004 02 29.31436 10 20 26.80 +06 51 05.7 21.3 V 691 – Steward Observatory, Kitt Peak-Spacewatch MPS 139255
2004 03 17.14694 10 07 50.75 +08 41 25.2 21.4 V 691 – Steward Observatory, Kitt Peak-Spacewatch MPS 139255
2004 03 17.17563 10 07 49.57 +08 41 36.1 22.1 V 691 – Steward Observatory, Kitt Peak-Spacewatch MPS 139255
2004 03 17.20437 10 07 48.39 +08 41 46.5 22.0 V 691 – Steward Observatory, Kitt Peak-Spacewatch MPS 139255
2005 07 05.25364 17 52 08.22 -09 33 40.9 19.9   704 – Lincoln Laboratory ETS, New Mexico MPS 244576
2005 07 05.26416 17 52 07.78 -09 33 43.1 19.4   704 – Lincoln Laboratory ETS, New Mexico MPS 244576
2005 07 05.27465 17 52 07.30 -09 33 44.7 19.4   704 – Lincoln Laboratory ETS, New Mexico MPS 244576
2006 11 23.27128 03 17 45.31 +07 48 41.3 20.0 V G96 – Mt. Lemmon Survey MPS 190321
2006 11 23.27662 03 17 45.02 +07 48 40.2 19.9 V G96 – Mt. Lemmon Survey MPS 190321
2006 11 23.28196 03 17 44.77 +07 48 38.9 20.0 V G96 – Mt. Lemmon Survey MPS 190321
2006 11 23.28730 03 17 44.48 +07 48 37.9 19.8 V G96 – Mt. Lemmon Survey MPS 190321
2008 01 15.24415 08 01 20.82 +11 23 22.8 21.2 V G96 – Mt. Lemmon Survey MPS 234130
2008 01 15.25118 08 01 20.49 +11 23 25.0 21.3 V G96 – Mt. Lemmon Survey MPS 234130
2008 01 15.25833 08 01 20.10 +11 23 25.9 22.0 V G96 – Mt. Lemmon Survey MPS 234130
2008 01 15.26535 08 01 19.70 +11 23 26.9 21.1 V G96 – Mt. Lemmon Survey MPS 234130
2009 02 20.46825 13 11 07.13 -05 20 01.7 21.2 V 691 – Steward Observatory, Kitt Peak-Spacewatch MPS 277524
2009 02 20.48660 13 11 07.00 -05 19 57.5 21.3 V 691 – Steward Observatory, Kitt Peak-Spacewatch MPS 277524
2009 02 20.50470 13 11 06.83 -05 19 53.4 20.9 V 691 – Steward Observatory, Kitt Peak-Spacewatch MPS 277524
2009 02 24.43303 13 10 29.57 -05 03 47.7   691 – Steward Observatory, Kitt Peak-Spacewatch MPS 277524
2009 02 24.45136 13 10 29.37 -05 03 43.0   691 – Steward Observatory, Kitt Peak-Spacewatch MPS 277524
2009 02 24.46945 13 10 29.08 -05 03 37.9   691 – Steward Observatory, Kitt Peak-Spacewatch MPS 277524
2009 03 18.32823 13 00 46.47 -02 51 15.7 20.0 V G96 – Mt. Lemmon Survey MPS 280011
2009 03 18.33153 13 00 46.29 -02 51 14.4 20.0 V G96 – Mt. Lemmon Survey MPS 280011
2009 03 18.33484 13 00 46.18 -02 51 12.6 20.0 V G96 – Mt. Lemmon Survey MPS 280011
2009 03 18.33817 13 00 46.04 -02 51 11.3 20.1 V G96 – Mt. Lemmon Survey MPS 280011
2009 03 28.99411 12 53 03.93 -01 28 26.0 19.0 V A50 – Andrushivka Astronomical Observatory MPS 283711
2009 03 29.04392 12 53 01.52 -01 28 01.1 19.1 V A50 – Andrushivka Astronomical Observatory MPS 283711
2009 03 31.20214 12 51 20.67 -01 10 44.5 19.9 V 691 – Steward Observatory, Kitt Peak-Spacewatch MPS 282473
2009 03 31.21983 12 51 19.78 -01 10 36.1 19.9 V 691 – Steward Observatory, Kitt Peak-Spacewatch MPS 282473
2009 03 31.23754 12 51 18.89 -01 10 27.4 19.8 V 691 – Steward Observatory, Kitt Peak-Spacewatch MPS 282473
2009 05 01.22729 12 29 20.97 +02 20 40.5 19.8 V G96 – Mt. Lemmon Survey MPS 286411
2009 05 01.23537 12 29 20.72 +02 20 42.6 20.0 V G96 – Mt. Lemmon Survey MPS 286411
2009 05 01.24353 12 29 20.47 +02 20 44.8 19.9 V G96 – Mt. Lemmon Survey MPS 286411
2009 05 01.25176 12 29 20.18 +02 20 47.2 20.2 V G96 – Mt. Lemmon Survey MPS 286411
2010 06 09.247604 23 07 55.49 -00 28 16.6   C51 – WISE MPS 333378
2010 06 09.379780 23 08 04.74 -00 27 25.3   C51 – WISE MPS 333378
2010 06 09.379907 23 08 04.74 -00 27 25.4   C51 – WISE MPS 333378
2010 06 09.512084 23 08 14.00 -00 26 34.6   C51 – WISE MPS 333378
2010 06 09.512212 23 08 14.03 -00 26 34.6   C51 – WISE MPS 333378
2010 06 09.644388 23 08 23.29 -00 25 44.1   C51 – WISE MPS 333378
2010 06 09.644515 23 08 23.26 -00 25 43.8   C51 – WISE MPS 333378
2010 06 09.77669 23 08 32.50 -00 24 54.6   C51 – WISE MPS 333378
2010 06 09.842907 23 08 37.12 -00 24 27.9   C51 – WISE MPS 333378
2010 06 09.908995 23 08 41.75 -00 24 03.0   C51 – WISE MPS 333378
2010 06 09.975211 23 08 46.38 -00 23 37.5   C51 – WISE MPS 333378
2010 06 10.041299 23 08 50.95 -00 23 12.8   C51 – WISE MPS 333378
2010 06 10.10752 23 08 55.58 -00 22 47.7   C51 – WISE MPS 333378
2010 06 10.173603 23 09 00.14 -00 22 22.7   C51 – WISE MPS 333378
2010 06 10.239818 23 09 04.71 -00 21 58.4   C51 – WISE MPS 333378
2010 06 10.372123 23 09 13.92 -00 21 07.7   C51 – WISE MPS 333378
2010 06 10.504427 23 09 23.04 -00 20 17.8   C51 – WISE MPS 333378
2010 06 10.636731 23 09 32.16 -00 19 27.4   C51 – WISE MPS 333378
2010 06 10.768907 23 09 41.29 -00 18 38.3   C51 – WISE MPS 333378
2010 06 10.769035 23 09 41.31 -00 18 38.5   C51 – WISE MPS 333378
2010 08 13.34461 23 39 24.75 +00 39 27.7   691 – Steward Observatory, Kitt Peak-Spacewatch MPS 344722
2010 08 13.36239 23 39 24.37 +00 39 21.8   691 – Steward Observatory, Kitt Peak-Spacewatch MPS 344722
2010 08 13.38018 23 39 23.97 +00 39 15.6   691 – Steward Observatory, Kitt Peak-Spacewatch MPS 344722
2010 09 01.36528 23 29 17.53 -01 41 58.6 19.1   704 – Lincoln Laboratory ETS, New Mexico MPS 347013
2010 09 01.37670 23 29 17.03 -01 42 05.2 19.6   704 – Lincoln Laboratory ETS, New Mexico MPS 347013
2010 09 01.38813 23 29 16.54 -01 42 10.7 19.2   704 – Lincoln Laboratory ETS, New Mexico MPS 347013
2010 09 01.39956 23 29 16.07 -01 42 17.2 19.4   704 – Lincoln Laboratory ETS, New Mexico MPS 347013
2010 09 01.41096 23 29 15.55 -01 42 23.9 19.2   704 – Lincoln Laboratory ETS, New Mexico MPS 347013
2010 09 04.32298 23 27 13.52 -02 08 15.3 19.4   704 – Lincoln Laboratory ETS, New Mexico MPS 347818
2010 09 04.33590 23 27 12.89 -02 08 21.9 20.4   704 – Lincoln Laboratory ETS, New Mexico MPS 347818
